Regional Weather Roundup
Issued by NWS

Home | Current Version | Previous Version | Text Only | Print | Product List | Glossary Off
Versions: 1 2 3 4 5 6 7 8 9 10 11 12 13 14 15 16 17 18 19 20 21 22 23 24 25 26 27 28 29 30 31 32 33 34 35 36 37 38 39 40 41 42 43 44 45 46 47 48 49 50

000
ASUS44 KOUN 222310
RWROK

WEATHER ROUNDUP FOR OKLAHOMA
NATIONAL WEATHER SERVICE NORMAN OK
600 PM CDT THU JUN 22 2017

NOTE: "FAIR" INDICATES FEW OR NO CLOUDS BELOW 12,000 FEET WITH NO
      SIGNIFICANT WEATHER AND/OR OBSTRUCTIONS TO VISIBILITY.

OKZ001>007-009>012-014-015-017-230000-
NORTHWEST OKLAHOMA AND THE PANHANDLE

CITY           SKY/WX    TMP DP  RH WIND       PRES   REMARKS
GAGE           SUNNY     97  60  29 S16G23    29.64F HX  97
GUYMON         SUNNY     96  62  32 S14       29.65F HX  97
ENID/WOODRING  MOSUNNY   93  63  36 SE10      29.62F HX  94
$$

OKZ016-021>023-033>039-044-045-230000-
SOUTHWEST OKLAHOMA

CITY           SKY/WX    TMP DP  RH WIND       PRES   REMARKS
LAWTON/REGL    SUNNY     94  64  37 SE7       29.65F HX  95
LAWTON/FT SILL SUNNY     92  65  40 S6        29.64F HX  94
FREDERICK      SUNNY     95  59  30 SE12      29.62F HX  94
CLINTON        SUNNY     96  58  27 S14       29.67F HX  95
HOBART         SUNNY     96  58  27 S13       29.66F HX  95
ALTUS AFB      SUNNY     95  58  28 S13       29.64F HX  94
$$

OKZ018>020-024>031-230000-
CENTRAL OKLAHOMA

CITY           SKY/WX    TMP DP  RH WIND       PRES   REMARKS
OKLAHOMA CITY  MOSUNNY   90  66  45 S10       29.65F HX  92
OKC/WILEY POST SUNNY     94  65  38 S10       29.64F HX  96
OKC/TINKER AFB SUNNY     90  68  48 SE8       29.65F HX  93
STILLWATER     MOSUNNY   90  69  50 S14G20    29.64F HX  94
GUTHRIE        SUNNY     91  68  46 SE12      29.64S HX  95
$$

OKZ008-013-054>072-230000-
NORTHEAST OKLAHOMA

CITY           SKY/WX    TMP DP  RH WIND       PRES   REMARKS
TULSA          PTSUNNY   87  73  62 SE12      29.64F HX  94
TULSA/JONES    MOSUNNY   89  71  55 SE8       29.64F HX  95
PONCA CITY     SUNNY     90  68  48 SE15      29.63F HX  94
BARTLESVILLE   MOSUNNY   88  72  58 SE9       29.66S HX  94
MUSKOGEE       PTSUNNY   85  73  67 SE6       29.66F HX  91
$$

OKZ032-040>043-046>053-073>077-230000-
SOUTH CENTRAL/SOUTHEAST OKLAHOMA

CITY           SKY/WX    TMP DP  RH WIND       PRES   REMARKS
ARDMORE/DWNTWN MOSUNNY   88  66  48 CALM      29.64F HX  90
MCALESTER      MOSUNNY   87  74  64 E3        29.65F HX  95
$$





USA.gov is the U.S. government's official web portal to all federal, state and local government web resources and services.